Wind_Speed
20 19 19 18 20 22 24 26 27 25 24 27 30 30 26 26 31 35 38 39 40 40 41 41 39 39 40 39 37 37 37 37 37 36 35 35 35 36 36 36 36 36 35 35
22 23 23 23 24 24 25 26 27 25 23 25 26 25 25 27 31 34 37 39 40 41 41 41 41 38 37 35 36 37 38 39 38 38 38 38 38 38 39 40 40 38 37 36
26 26 27 27 28 28 27 28 28 28 26 27 27 26 26 28 32 35 37 41 43 43 43 44 43 42 42 40 39 39 40 41 40 40 40 40 40 40 41 41 40 39 38 37
23 26 28 28 29 29 30 30 31 30 29 30 31 31 30 32 36 39 42 44 45 46 46 44 43 42 42 41 41 40 41 42 41 41 41 40 40 40 40 40 40 39 39 39
19 22 25 27 27 29 31 32 33 33 33 33 34 38 37 38 40 42 45 46 46 46 45 43 42 41 41 41 41 40 40 41 40 40 41 40 40 39 38 38 38 38 39 39
10 14 17 19 21 24 27 28 30 32 33 34 34 40 43 42 44 45 47 47 47 46 45 44 43 43 43 42 40 38 38 38 38 38 38 38 38 37 37 37 37 38 39 41
6 8 10 12 14 16 19 21 22 25 28 31 30 36 42 43 45 47 49 49 49 49 49 48 47 46 45 43 40 39 38 37 37 37 37 37 37 37 38 38 39 40 42 43
7 9 11 12 14 15 17 19 22 25 25 26 27 31 34 37 41 44 47 49 50 50 50 52 52 51 50 48 45 43 42 41 40 40 40 40 40 40 40 41 42 43 44 45
8 9 11 13 15 17 18 20 22 26 27 28 27 28 32 35 38 41 44 46 48 49 50 52 54 54 53 51 50 49 47 46 45 45 45 45 44 44 44 44 45 45 46 46
9 9 10 12 15 16 18 18 20 24 28 30 31 31 32 35 38 41 43 45 47 50 51 51 52 52 52 51 52 51 49 48 47 47 47 46 45 45 45 46 46 45 44 43
9 10 9 11 14 15 16 18 19 22 26 31 35 35 35 37 40 42 44 45 45 46 48 49 49 48 48 45 44 45 45 44 44 44 44 44 43 43 43 43 42 41 39 38
13 13 13 14 16 17 17 19 21 24 27 30 35 38 36 37 38 41 44 45 46 45 43 42 41 40 40 39 36 36 38 39 39 38 38 38 39 39 39 38 37 36 36 35
17 17 17 18 19 19 20 21 23 26 28 30 33 34 34 34 35 37 40 40 41 40 37 34 33 33 32 31 30 31 32 33 34 34 34 34 34 35 35 34 34 34 34 34
19 19 20 20 22 23 23 24 26 28 29 31 32 32 31 33 33 34 34 34 33 32 31 30 29 28 25 25 27 28 30 31 31 31 31 31 32 32 32 31 32 33 33 33
22 22 21 22 24 24 24 25 27 28 29 30 30 30 29 30 30 30 28 26 24 23 24 24 23 23 23 24 25 27 28 29 30 30 30 31 31 31 30 30 31 31 31 31
28 27 26 25 26 27 25 26 26 27 27 27 28 27 28 27 27 24 21 19 17 16 17 18 18 19 20 23 24 25 26 27 29 30 30 30 30 29 29 29 29 30 30 30
33 32 30 29 29 28 27 26 25 25 25 25 25 25 25 24 23 22 19 17 15 14 14 15 16 18 20 22 23 24 25 26 27 28 28 28 28 28 28 29 29 29 29 30
33 34 35 34 32 30 28 26 24 24 23 23 23 23 22 21 21 20 18 15 14 13 13 14 16 17 19 21 22 23 23 24 24 24 25 26 26 26 27 27 27 27 27 27
29 32 33 35 35 32 28 26 24 23 21 22 22 21 20 19 19 18 17 15 14 13 13 13 14 15 16 16 17 19 20 21 21 21 22 22 22 21 21 21 22 22 24 25
26 27 29 31 33 33 28 26 23 23 21 21 20 19 19 18 18 18 16 15 14 14 14 14 13 13 13 14 15 15 16 17 18 19 19 19 18 18 18 19 19 21 22 22
25 26 27 28 31 32 30 29 26 24 22 21 20 19 18 17 17 17 16 15 14 13 13 13 12 12 12 11 12 12 13 14 14 15 15 15 15 15 16 16 17 18 19 20
25 26 26 26 29 29 30 31 28 25 23 21 20 19 17 16 16 15 15 14 13 12 11 11 10 10 10 10 10 11 11 12 11 12 12 12 12 13 14 14 15 16 16 17
25 25 25 26 27 29 31 32 31 28 25 23 22 20 17 16 15 14 13 12 11 10 10 9 8 8 7 8 8 8 8 9 9 10 10 10 11 11 11 12 13 13 14 15
24 25 25 25 26 29 31 33 32 29 26 24 23 22 19 17 15 14 12 11 10 9 8 8 7 6 6 6 6 6 6 7 7 8 8 8 8 8 9 10 11 12 13 15
24 25 25 24 24 26 27 29 30 30 26 23 23 23 22 19 17 16 15 13 11 10 9 8 8 7 6 6 6 6 6 6 6 6 7 7 7 8 9 10 11 12 14 15
26 26 25 23 23 23 22 24 26 27 26 25 23 23 24 22 20 19 18 17 15 14 12 11 10 10 9 8 8 7 7 7 7 7 8 8 9 9 10 11 12 14 15 16
Wind_Direction
238 237 235 236 238 238 237 239 240 239 238 245 248 250 247 249 253 256 259 261 262 263 266 267 267 268 267 262 260 261 265 269 272 275 279 282 284 286 288 290 292 294 295 296
237 237 238 237 239 242 243 244 245 242 239 244 249 250 247 247 251 255 259 262 264 267 269 270 271 270 269 268 264 262 262 264 267 270 275 279 282 284 286 288 290 291 293 293
238 238 239 240 243 247 249 249 248 246 238 240 244 244 242 243 248 253 259 264 268 271 272 273 273 272 270 272 270 268 267 267 268 268 271 275 278 281 282 284 286 288 289 290
243 244 245 246 247 250 251 253 253 252 245 239 242 241 238 239 245 252 257 262 266 269 271 272 272 273 272 272 271 269 268 268 269 268 270 273 276 278 280 281 283 285 287 289
245 247 252 254 255 257 258 259 259 259 255 247 242 246 243 243 246 253 259 263 266 268 270 270 271 272 273 272 272 270 269 268 268 270 272 275 276 277 279 280 282 284 286 289
243 246 251 256 258 260 263 264 264 264 262 257 248 248 251 248 252 256 261 264 266 268 268 269 270 270 271 270 271 271 272 271 271 272 274 276 277 278 279 280 282 284 286 289
254 253 256 258 259 263 267 270 269 266 264 264 260 254 255 254 253 255 258 261 263 265 266 267 268 269 268 268 269 270 270 272 273 273 274 275 277 278 279 281 282 284 286 288
264 265 267 268 270 270 271 274 276 277 273 269 265 264 264 261 259 257 258 260 262 263 264 264 266 267 267 268 268 267 267 269 271 273 274 275 276 277 279 281 283 285 286 288
271 271 275 277 279 278 278 277 281 283 284 282 278 273 268 267 265 264 262 261 261 261 262 263 265 265 266 267 266 266 265 266 268 271 273 274 274 276 278 280 283 284 286 287
284 284 281 283 284 286 286 286 284 284 287 288 287 284 279 274 271 268 267 265 264 262 262 263 265 266 266 266 265 263 262 263 266 269 271 272 273 274 276 278 281 282 284 285
293 294 291 285 285 289 291 293 295 296 296 296 296 293 291 284 279 275 271 269 267 265 263 263 264 264 265 269 265 260 259 262 266 268 269 270 270 272 274 276 279 280 282 283
298 298 296 292 292 294 296 300 301 303 305 305 305 306 302 293 286 281 276 271 267 266 264 263 262 264 265 266 267 263 261 262 264 267 268 268 269 271 273 275 277 278 280 281
296 296 297 296 296 297 300 302 304 307 309 310 311 313 310 304 298 291 284 278 271 267 267 265 264 265 265 264 264 263 262 262 263 265 266 267 268 270 272 274 276 277 278 279
293 293 294 295 295 297 300 303 306 309 312 314 317 317 315 310 306 302 293 286 278 271 267 264 265 263 261 261 261 261 260 261 263 264 266 267 269 270 271 273 275 276 277 278
293 292 291 290 290 292 297 301 304 308 313 318 322 323 321 318 313 309 302 292 283 276 270 266 267 263 259 260 261 260 259 260 262 264 265 267 268 270 271 272 273 274 275 277
292 291 290 290 290 292 295 298 301 305 312 318 322 323 322 322 322 316 310 303 294 285 276 268 267 262 258 257 258 258 258 258 259 261 263 265 266 267 268 270 271 273 274 276
289 290 290 289 289 290 292 294 298 302 310 316 321 324 325 326 328 326 319 311 304 293 280 272 267 262 257 255 255 256 255 255 257 258 259 261 263 265 268 269 271 272 275 277
282 283 283 284 284 285 288 290 294 299 307 313 320 325 328 328 329 329 327 319 311 303 293 282 275 266 258 254 253 252 251 253 255 256 258 260 262 264 267 269 271 274 276 279
286 283 281 277 276 278 281 285 291 295 303 309 317 323 326 327 327 328 327 321 315 307 298 289 280 271 262 258 257 254 251 253 254 256 257 259 262 266 269 271 275 278 281 283
296 292 286 281 276 276 276 278 282 286 292 299 309 317 324 327 325 325 325 321 316 311 303 295 288 280 271 264 262 260 256 254 254 254 256 260 264 268 272 276 280 282 285 287
306 303 297 288 283 282 282 279 278 281 286 293 301 311 320 325 327 327 325 323 319 313 308 301 295 290 285 278 271 265 262 259 256 255 257 260 265 271 275 280 285 288 291 293
312 308 301 291 285 287 286 285 282 280 282 287 294 302 311 317 323 327 328 328 326 322 316 309 303 297 290 283 275 269 262 259 257 257 258 262 268 273 279 283 287 291 294 298
315 310 301 292 286 282 282 284 282 280 281 283 286 291 298 303 309 317 325 330 332 329 326 322 314 305 293 284 277 268 262 259 259 259 262 265 269 274 279 284 289 293 297 299
313 309 302 298 293 283 278 280 277 277 278 277 279 283 287 289 293 298 304 313 321 325 325 324 320 311 297 285 277 269 264 262 262 261 260 263 267 272 277 283 290 296 299 302
312 310 308 305 299 289 281 276 275 275 273 273 274 279 282 281 281 284 288 292 297 302 307 310 310 306 299 290 281 273 269 267 264 263 263 267 272 278 284 291 296 300 303 306
313 315 314 311 302 298 293 280 274 273 272 269 270 272 276 277 276 277 279 282 285 287 290 292 293 293 292 289 286 280 275 273 271 271 272 276 280 286 291 295 299 303 306 309
Height
5858 5861 5861 5862 5863 5864 5865 5866 5868 5870 5871 5872 5872 5873 5876 5877 5877 5878 5879 5880 5882 5883 5884 5884 5884 5884 5884 5884 5884 5885 5885 5884 5885 5885 5885 5885 5885 5884 5884 5883 5882 5882 5881 5880
5855 5856 5857 5857 5858 5860 5861 5862 5863 5865 5866 5867 5867 5868 5869 5870 5871 5871 5872 5872 5873 5874 5875 5875 5875 5875 5874 5873 5874 5874 5874 5875 5876 5876 5877 5877 5877 5877 5876 5875 5874 5873 5873 5872
5849 5851 5851 5852 5853 5855 5857 5858 5858 5859 5861 5862 5863 5864 5864 5865 5866 5866 5866 5865 5865 5865 5866 5866 5867 5868 5867 5866 5866 5866 5865 5865 5866 5867 5868 5868 5868 5868 5868 5867 5866 5865 5864 5864
5844 5845 5846 5847 5849 5850 5851 5851 5852 5853 5856 5857 5858 5859 5861 5860 5860 5860 5859 5858 5857 5857 5856 5856 5856 5856 5856 5856 5856 5856 5855 5856 5856 5857 5858 5859 5860 5860 5859 5859 5858 5857 5856 5855
5839 5840 5841 5842 5844 5844 5844 5845 5846 5847 5849 5851 5853 5852 5855 5854 5854 5853 5851 5850 5849 5848 5847 5846 5846 5846 5845 5845 5844 5844 5845 5846 5846 5847 5848 5849 5850 5851 5850 5850 5849 5848 5847 5846
5836 5836 5837 5837 5838 5838 5837 5838 5839 5839 5840 5842 5845 5844 5844 5847 5846 5846 5844 5842 5840 5839 5838 5837 5836 5836 5835 5834 5833 5833 5834 5836 5837 5838 5839 5839 5840 5841 5841 5841 5841 5840 5839 5837
5834 5834 5834 5834 5834 5834 5833 5833 5832 5832 5832 5832 5835 5835 5835 5836 5836 5835 5834 5832 5831 5830 5828 5827 5826 5825 5823 5822 5823 5825 5826 5827 5828 5829 5830 5830 5831 5831 5831 5832 5831 5831 5830 5828
5831 5832 5831 5831 5830 5830 5829 5828 5828 5826 5825 5825 5826 5825 5826 5824 5824 5823 5822 5821 5819 5818 5817 5816 5815 5814 5813 5813 5814 5815 5816 5818 5819 5819 5820 5821 5821 5822 5822 5822 5822 5821 5820 5818
5828 5829 5828 5827 5826 5825 5824 5823 5822 5820 5818 5817 5817 5817 5815 5813 5812 5811 5810 5808 5807 5806 5804 5803 5803 5803 5802 5802 5803 5804 5806 5807 5809 5809 5810 5810 5811 5811 5811 5811 5811 5810 5809 5807
5825 5825 5824 5823 5822 5820 5819 5818 5817 5814 5811 5808 5807 5807 5806 5804 5801 5799 5796 5794 5793 5792 5791 5790 5790 5790 5791 5790 5791 5792 5794 5796 5797 5798 5799 5799 5800 5800 5801 5801 5800 5799 5798 5796
5822 5822 5821 5819 5818 5816 5815 5813 5811 5808 5806 5802 5797 5799 5797 5793 5789 5786 5783 5781 5779 5778 5777 5777 5777 5777 5778 5779 5779 5779 5781 5784 5786 5787 5788 5788 5789 5789 5790 5791 5790 5789 5788 5787
5819 5818 5817 5816 5814 5812 5810 5809 5806 5803 5800 5795 5790 5789 5784 5780 5776 5772 5769 5766 5764 5764 5763 5763 5763 5765 5766 5768 5769 5770 5771 5773 5775 5776 5777 5778 5779 5780 5780 5780 5780 5780 5779 5778
5816 5816 5814 5813 5812 5809 5806 5804 5801 5798 5794 5789 5783 5781 5774 5768 5763 5759 5755 5752 5750 5751 5751 5751 5752 5754 5755 5757 5759 5761 5762 5764 5765 5766 5767 5768 5769 5770 5771 5771 5771 5770 5770 5769
5813 5811 5811 5809 5806 5803 5801 5798 5795 5791 5787 5782 5777 5771 5766 5759 5753 5748 5744 5741 5739 5739 5740 5742 5743 5744 5746 5748 5749 5751 5753 5755 5756 5757 5758 5759 5761 5761 5762 5762 5762 5762 5761 5761
5808 5807 5805 5803 5800 5798 5796 5793 5789 5786 5781 5776 5771 5764 5759 5752 5746 5741 5736 5732 5730 5730 5731 5733 5734 5736 5738 5739 5741 5742 5744 5745 5747 5748 5750 5751 5752 5753 5753 5753 5753 5753 5753 5753
5800 5799 5798 5796 5793 5791 5790 5788 5784 5780 5776 5771 5765 5760 5754 5747 5741 5735 5730 5726 5725 5724 5725 5725 5726 5727 5729 5731 5732 5734 5735 5737 5739 5740 5741 5743 5744 5744 5744 5745 5745 5745 5745 5744
5792 5791 5790 5789 5786 5785 5784 5782 5779 5775 5771 5766 5761 5756 5749 5743 5737 5732 5727 5724 5721 5720 5720 5720 5720 5720 5721 5723 5724 5726 5727 5729 5730 5731 5733 5734 5735 5736 5736 5736 5737 5737 5737 5736
5785 5783 5781 5780 5779 5778 5779 5775 5773 5769 5766 5761 5756 5751 5746 5740 5735 5730 5725 5722 5719 5718 5716 5715 5715 5715 5715 5716 5717 5718 5720 5721 5722 5723 5725 5726 5726 5727 5727 5728 5729 5729 5728 5728
5778 5775 5773 5771 5769 5769 5770 5768 5766 5763 5760 5756 5752 5748 5743 5737 5732 5728 5724 5721 5718 5716 5714 5712 5711 5711 5711 5711 5711 5712 5713 5714 5715 5716 5717 5718 5719 5719 5720 5721 5721 5721 5721 5720
5770 5767 5765 5762 5759 5759 5762 5761 5759 5757 5755 5751 5748 5744 5739 5735 5730 5727 5722 5718 5716 5713 5711 5709 5708 5707 5706 5706 5706 5707 5707 5708 5709 5710 5711 5712 5712 5713 5714 5714 5715 5714 5714 5713
5762 5759 5757 5754 5751 5749 5751 5751 5751 5751 5749 5746 5742 5739 5736 5731 5728 5724 5719 5716 5713 5711 5708 5706 5705 5704 5703 5702 5702 5703 5703 5704 5705 5705 5706 5707 5707 5708 5708 5709 5709 5708 5707 5706
5755 5752 5749 5746 5743 5745 5743 5741 5742 5742 5741 5739 5737 5734 5732 5729 5725 5721 5717 5714 5711 5708 5706 5704 5702 5701 5700 5700 5700 5700 5700 5701 5701 5702 5702 5703 5703 5703 5703 5703 5703 5702 5701 5700
5751 5747 5742 5740 5739 5737 5734 5733 5733 5733 5733 5732 5731 5729 5728 5726 5723 5719 5716 5712 5709 5707 5705 5703 5701 5700 5699 5698 5698 5698 5698 5698 5698 5698 5699 5699 5699 5699 5699 5698 5698 5697 5696 5695
5747 5741 5737 5733 5731 5728 5726 5725 5724 5724 5725 5725 5724 5723 5722 5721 5719 5717 5714 5711 5709 5706 5704 5702 5700 5699 5698 5697 5696 5696 5696 5696 5695 5695 5695 5695 5695 5695 5694 5694 5693 5692 5691 5690
5741 5736 5732 5728 5725 5721 5719 5717 5716 5715 5716 5717 5716 5716 5716 5715 5714 5713 5711 5709 5707 5705 5703 5701 5699 5698 5697 5696 5695 5694 5694 5693 5693 5692 5692 5692 5691 5691 5690 5690 5689 5688 5687 5685
5735 5731 5727 5723 5720 5715 5713 5710 5708 5707 5707 5708 5709 5709 5708 5708 5708 5707 5705 5704 5703 5701 5700 5699 5697 5696 5695 5694 5693 5692 5692 5691 5690 5690 5689 5688 5688 5687 5687 5686 5685 5684 5682 5680